Tracking 27122 objects as of 24-Mar-2023
HD Live streaming from Space Station
objects crossing your sky now

STARLINK-3738

Track STARLINK-3738 now!
10-day predictions
STARLINK-3738 is classified as:


NORAD ID: 52117
Int'l Code: 2022-029AF
Perigee: 546.0 km
Apogee: 547.8 km
Inclination: 53.2 °
Period: 95.4 minutes
Semi major axis: 6917 km
RCS: Unknown
Launch date: March 19, 2022
Source: United States (US)
Launch site: AIR FORCE EASTERN TEST RANGE (AFETR)
Your satellite tracking list
Your tracking list is empty




NASA's NSSDC Master Catalog

Two Line Element Set (TLE):
1 52117U 22029AF  23082.76039555  .00001122  00000-0  88587-4 0  9992
2 52117  53.2135 256.0929 0001283  72.1046 288.0086 15.08845057 57461
Source of the keplerian elements: AFSPC